| time (UTC) | temp C | wind direction | speed KPH | gust KPH | rain 1hr cm | rain 24hr cm | rain mn cm | humidity % | barometer mb |
| 20260509212911 | 31 | 190 | 3.2 | 9.7 | 0.00 | 0.03 | 0.03 | 62 | 1005.7 |
| 20260509212412 | 31 | 190 | 1.6 | 9.7 | 0.00 | 0.03 | 0.03 | 63 | 1005.8 |
| 20260509211914 | 31 | 190 | 0.0 | 4.8 | 0.00 | 0.03 | 0.03 | 63 | 1005.9 |
| 20260509211413 | 31 | 190 | 0.0 | 1.6 | 0.00 | 0.03 | 0.03 | 63 | 1005.9 |
| 20260509210904 | 31 | 190 | 0.0 | 3.2 | 0.00 | 0.03 | 0.03 | 63 | 1006.0 |
| 20260509210404 | 31 | 190 | 0.0 | 3.2 | 0.00 | 0.03 | 0.03 | 62 | 1005.9 |
| 20260509205901 | 31 | 190 | 0.0 | 8.0 | 0.00 | 0.03 | 0.03 | 61 | 1005.9 |
| 20260509205400 | 31 | 190 | 1.6 | 8.0 | 0.00 | 0.03 | 0.03 | 61 | 1006.0 |
| 20260509205131 | 31 | 190 | 0.0 | 6.4 | 0.00 | 0.03 | 0.03 | 63 | 1006.0 |
| 20260509204353 | 31 | 190 | 0.0 | 4.8 | 0.00 | 0.03 | 0.03 | 62 | 1006.2 |
| 20260509203855 | 31 | 190 | 0.0 | 3.2 | 0.00 | 0.03 | 0.03 | 61 | 1006.2 |
| 20260509203351 | 31 | 190 | 0.0 | 0.0 | 0.00 | 0.03 | 0.03 | 61 | 1006.4 |
| 20260509202847 | 31 | 190 | 0.0 | 0.0 | 0.00 | 0.03 | 0.03 | 61 | 1006.5 |
| 20260509202359 | 31 | 190 | 0.0 | 0.0 | 0.00 | 0.03 | 0.03 | 63 | 1006.5 |
| 20260509201840 | 31 | 190 | 0.0 | 4.8 | 0.00 | 0.03 | 0.03 | 63 | 1006.6 |
| 20260509201341 | 30 | 190 | 1.6 | 4.8 | 0.00 | 0.03 | 0.03 | 63 | 1006.6 |
| 20260509200844 | 30 | 190 | 1.6 | 9.7 | 0.00 | 0.03 | 0.03 | 63 | 1006.6 |
| 20260509200345 | 30 | 190 | 3.2 | 9.7 | 0.00 | 0.03 | 0.03 | 63 | 1006.6 |
| 20260509195842 | 31 | 190 | 1.6 | 9.7 | 0.00 | 0.03 | 0.03 | 62 | 1006.6 |
| 20260509195341 | 31 | 190 | 1.6 | 9.7 | 0.00 | 0.03 | 0.03 | 61 | 1006.6 |
| 20260509194839 | 31 | 190 | 3.2 | 9.7 | 0.00 | 0.03 | 0.03 | 62 | 1006.6 |
| 20260509194341 | 31 | 190 | 3.2 | 9.7 | 0.00 | 0.03 | 0.03 | 61 | 1006.7 |
| 20260509193840 | 31 | 190 | 1.6 | 6.4 | 0.00 | 0.03 | 0.03 | 61 | 1006.8 |
| 20260509193337 | 31 | 190 | 0.0 | 0.0 | 0.00 | 0.03 | 0.03 | 62 | 1006.9 |
| 20260509192837 | 30 | 190 | 0.0 | 0.0 | 0.00 | 0.03 | 0.03 | 63 | 1006.9 |
| 20260509192335 | 30 | 190 | 0.0 | 3.2 | 0.00 | 0.03 | 0.03 | 63 | 1007.0 |
| 20260509191835 | 30 | 190 | 0.0 | 3.2 | 0.00 | 0.03 | 0.03 | 63 | 1007.0 |
| 20260509191558 | 30 | 190 | 0.0 | 3.2 | 0.00 | 0.03 | 0.03 | 63 | 1007.1 |
| 20260509190829 | 30 | 190 | 0.0 | 3.2 | 0.00 | 0.03 | 0.03 | 63 | 1007.2 |
| 20260509190324 | 30 | 190 | 0.0 | 3.2 | 0.00 | 0.03 | 0.03 | 63 | 1007.3 |
| 20260509185826 | 31 | 190 | 0.0 | 3.2 | 0.00 | 0.03 | 0.03 | 62 | 1007.3 |
| 20260509185323 | 31 | 190 | 0.0 | 3.2 | 0.00 | 0.03 | 0.03 | 62 | 1007.4 |
| 20260509184815 | 30 | 190 | 0.0 | 3.2 | 0.00 | 0.03 | 0.03 | 62 | 1007.4 |
| 20260509184313 | 30 | 190 | 1.6 | 9.7 | 0.00 | 0.03 | 0.03 | 63 | 1007.5 |
| 20260509183812 | 30 | 190 | 1.6 | 9.7 | 0.00 | 0.03 | 0.03 | 62 | 1007.6 |
| 20260509183551 | 30 | 190 | 1.6 | 8.0 | 0.00 | 0.03 | 0.03 | 62 | 1007.6 |
| 20260509182807 | 30 | 190 | 3.2 | 8.0 | 0.00 | 0.03 | 0.03 | 62 | 1007.7 |
| 20260509182309 | 30 | 190 | 3.2 | 8.0 | 0.00 | 0.03 | 0.03 | 62 | 1007.7 |
| 20260509181804 | 30 | 190 | 1.6 | 8.0 | 0.00 | 0.03 | 0.03 | 62 | 1007.8 |
| 20260509181302 | 30 | 190 | 1.6 | 6.4 | 0.00 | 0.03 | 0.03 | 62 | 1007.9 |
| 20260509180804 | 29 | 190 | 1.6 | 6.4 | 0.00 | 0.03 | 0.03 | 62 | 1008.0 |
| 20260509180301 | 29 | 190 | 3.2 | 8.0 | 0.00 | 0.03 | 0.03 | 62 | 1008.1 |
| 20260509175800 | 30 | 190 | 3.2 | 8.0 | 0.00 | 0.03 | 0.03 | 62 | 1008.2 |
| 20260509175259 | 30 | 190 | 3.2 | 8.0 | 0.00 | 0.03 | 0.03 | 62 | 1008.3 |
| 20260509174801 | 30 | 190 | 1.6 | 8.0 | 0.00 | 0.03 | 0.03 | 62 | 1008.3 |
| 20260509174256 | 30 | 190 | 3.2 | 11.3 | 0.00 | 0.03 | 0.03 | 62 | 1008.3 |
| 20260509173758 | 30 | 190 | 1.6 | 11.3 | 0.00 | 0.03 | 0.03 | 61 | 1008.4 |
| 20260509173252 | 30 | 190 | 1.6 | 9.7 | 0.00 | 0.03 | 0.03 | 60 | 1008.4 |
| 20260509172757 | 29 | 190 | 1.6 | 9.7 | 0.00 | 0.03 | 0.03 | 61 | 1008.4 |
| 20260509172251 | 29 | 190 | 3.2 | 11.3 | 0.00 | 0.03 | 0.03 | 60 | 1008.4 |
| 20260509171748 | 29 | 190 | 3.2 | 11.3 | 0.00 | 0.03 | 0.03 | 60 | 1008.4 |
| 20260509170747 | 29 | 190 | 0.0 | 0.0 | 0.00 | 0.03 | 0.03 | 60 | 1008.5 |
| 20260509170248 | 29 | 190 | 1.6 | 4.8 | 0.00 | 0.03 | 0.03 | 60 | 1008.5 |
| 20260509165744 | 29 | 190 | 1.6 | 4.8 | 0.00 | 0.03 | 0.03 | 58 | 1008.4 |
| 20260509165517 | 28 | 190 | 1.6 | 4.8 | 0.00 | 0.03 | 0.03 | 56 | 1008.6 |
| 20260509164743 | 28 | 190 | 3.2 | 9.7 | 0.00 | 0.03 | 0.03 | 56 | 1008.6 |
| 20260509164244 | 28 | 190 | 3.2 | 9.7 | 0.00 | 0.03 | 0.03 | 56 | 1008.5 |
| 20260509163745 | 28 | 190 | 1.6 | 9.7 | 0.00 | 0.03 | 0.03 | 51 | 1008.5 |
| 20260509163244 | 28 | 190 | 1.6 | 11.3 | 0.00 | 0.03 | 0.03 | 43 | 1008.4 |
| 20260509163018 | 28 | 190 | 6.4 | 16.1 | 0.00 | 0.03 | 0.03 | 42 | 1008.4 |
| 20260509162241 | 27 | 190 | 8.0 | 16.1 | 0.00 | 0.03 | 0.03 | 44 | 1008.3 |
| 20260509161742 | 27 | 190 | 8.0 | 14.5 | 0.00 | 0.03 | 0.03 | 24 | 1008.1 |
| 20260509161250 | 27 | 190 | 8.0 | 14.5 | 0.00 | 0.03 | 0.03 | 30 | 1008.2 |
| 20260509160742 | 27 | 190 | 8.0 | 12.9 | 0.00 | 0.03 | 0.03 | 12 | 1008.2 |
| 20260509160248 | 27 | 190 | 6.4 | 12.9 | 0.00 | 0.03 | 0.03 | 10 | 1008.3 |
| 20260509155743 | 27 | 190 | 6.4 | 12.9 | 0.00 | 0.03 | 0.03 | 1 | 1008.3 |
| 20260509155236 | 27 | 190 | 4.8 | 12.9 | 0.00 | 0.03 | 0.03 | 1 | 1008.2 |
| 20260509155007 | 26 | 190 | 4.8 | 9.7 | 0.00 | 0.03 | 0.03 | 1 | 1008.4 |
| 20260509154509 | 26 | 190 | 4.8 | 9.7 | 0.00 | 0.03 | 0.03 | 1 | 1008.3 |
| 20260509153737 | 26 | 190 | 4.8 | 12.9 | 0.00 | 0.03 | 0.03 | 1 | 1008.3 |
| 20260509153235 | 26 | 190 | 4.8 | 12.9 | 0.00 | 0.03 | 0.03 | 1 | 1008.4 |
| 20260509152738 | 26 | 190 | 3.2 | 9.7 | 0.00 | 0.03 | 0.03 | 1 | 1008.4 |
| 20260509152237 | 25 | 190 | 1.6 | 6.4 | 0.00 | 0.03 | 0.03 | 1 | 1008.5 |
| 20260509151737 | 25 | 190 | 0.0 | 3.2 | 0.00 | 0.03 | 0.03 | 1 | 1008.7 |
| 20260509151240 | 25 | 190 | 0.0 | 3.2 | 0.00 | 0.03 | 0.03 | 1 | 1008.7 |
| 20260509151008 | 25 | 190 | 0.0 | 0.0 | 0.00 | 0.03 | 0.03 | 1 | 1008.5 |
| 20260509150234 | 25 | 190 | 0.0 | 0.0 | 0.00 | 0.03 | 0.03 | 1 | 1008.6 |
| 20260509145739 | 25 | 190 | 0.0 | 0.0 | 0.03 | 0.03 | 0.03 | 1 | 1008.6 |
| 20260509145233 | 24 | 190 | 0.0 | 0.0 | 0.03 | 0.03 | 0.03 | 1 | 1008.5 |
| 20260509144729 | 24 | 190 | 0.0 | 0.0 | 0.03 | 0.03 | 0.03 | 1 | 1008.4 |
| 20260509144226 | 24 | 190 | 0.0 | 0.0 | 0.03 | 0.03 | 0.03 | 1 | 1008.3 |
| 20260509143726 | 24 | 190 | 0.0 | 0.0 | 0.03 | 0.03 | 0.03 | 1 | 1008.3 |
| 20260509143221 | 24 | 190 | 0.0 | 0.0 | 0.03 | 0.03 | 0.03 | 1 | 1008.3 |
| 20260509142721 | 23 | 190 | 0.0 | 0.0 | 0.03 | 0.03 | 0.03 | 1 | 1008.4 |
| 20260509142213 | 23 | 190 | 0.0 | 0.0 | 0.03 | 0.03 | 0.03 | 1 | 1008.4 |
| 20260509141709 | 23 | 190 | 0.0 | 0.0 | 0.03 | 0.03 | 0.03 | 1 | 1008.3 |
| 20260509141210 | 23 | 190 | 0.0 | 0.0 | 0.03 | 0.03 | 0.03 | 1 | 1008.2 |
| 20260509140709 | 23 | 190 | 0.0 | 0.0 | 0.03 | 0.03 | 0.03 | 1 | 1008.2 |
| 20260509140207 | 23 | 190 | 0.0 | 0.0 | 0.03 | 0.03 | 0.03 | 1 | 1008.2 |
| 20260509135704 | 23 | 190 | 0.0 | 0.0 | 0.00 | 0.00 | 0.00 | 1 | 1008.4 |
| 20260509135437 | 23 | 190 | 0.0 | 0.0 | 0.00 | 0.00 | 0.00 | 1 | 1008.5 |
| 20260509134700 | 23 | 190 | 0.0 | 0.0 | 0.00 | 0.00 | 0.00 | 1 | 1008.5 |
| 20260509134431 | 23 | 190 | 0.0 | 0.0 | 0.00 | 0.00 | 0.00 | 1 | 1008.6 |
| 20260509133151 | -17 | 0.0 | 0.0 | 0.00 | 0.00 | 0.00 | 1008.5 | ||
| 20260509132648 | -17 | 0.0 | 0.0 | 0.00 | 0.00 | 0.00 | 1008.6 | ||
| 20260509132058 | -17 | 0.0 | 0.0 | 0.00 | 0.00 | 0.00 | 1008.5 | ||
| 20260509130958 | -17 | 0.0 | 0.0 | 0.00 | 0.00 | 0.00 | 1008.4 | ||
| 20260509125724 | -17 | 0.0 | 0.0 | 0.00 | 0.00 | 0.00 | 1008.4 | ||
| 20260509124858 | -17 | 0.0 | 0.0 | 0.00 | 0.00 | 0.00 | 1008.2 | ||
| 20260509124358 | -17 | 0.0 | 0.0 | 0.00 | 0.00 | 0.00 | 1008.3 | ||
| 20260509123756 | -17 | 0.0 | 0.0 | 0.00 | 0.00 | 0.00 | 1008.5 | ||
| 20260509123253 | -17 | 0.0 | 0.0 | 0.00 | 0.00 | 0.00 | 1008.3 | ||
| 20260509122658 | -17 | 0.0 | 0.0 | 0.00 | 0.00 | 0.00 | 1008.2 | ||
| 20260509122158 | -17 | 0.0 | 0.0 | 0.00 | 0.00 | 0.00 | 1008.2 | ||
| 20260509121654 | -17 | 0.0 | 0.0 | 0.00 | 0.00 | 0.00 | 1008.2 | ||
| 20260509121158 | -17 | 0.0 | 0.0 | 0.00 | 0.00 | 0.00 | 1008.1 | ||
| 20260509120651 | -17 | 190 | 0.0 | 0.0 | 0.00 | 0.00 | 0.00 | 1008.1 | |
| 20260509120104 | 23 | 190 | 0.0 | 0.0 | 0.00 | 0.00 | 0.00 | 1 | 1008.1 |
| 20260509115558 | 23 | 190 | 0.0 | 0.0 | 0.00 | 0.00 | 0.00 | 1 | 1008.1 |
| 20260509114541 | 23 | 190 | 0.0 | 0.0 | 0.00 | 0.00 | 0.00 | 1 | 1008.2 |
| 20260509114309 | 23 | 190 | 0.0 | 0.0 | 0.00 | 0.00 | 0.00 | 1 | 1008.3 |
| 20260509113537 | 23 | 190 | 0.0 | 0.0 | 0.00 | 0.00 | 0.00 | 1 | 1008.4 |
| 20260509113036 | 23 | 190 | 0.0 | 0.0 | 0.00 | 0.00 | 0.00 | 1 | 1008.5 |
| 20260509112534 | 23 | 190 | 0.0 | 0.0 | 0.00 | 0.00 | 0.00 | 1 | 1008.5 |
| 20260509112033 | 23 | 190 | 0.0 | 0.0 | 0.00 | 0.00 | 0.00 | 1 | 1008.5 |
| 20260509111537 | 23 | 190 | 0.0 | 0.0 | 0.00 | 0.00 | 0.00 | 1 | 1008.5 |
| 20260509111033 | 23 | 190 | 0.0 | 0.0 | 0.00 | 0.00 | 0.00 | 1 | 1008.6 |
| 20260509110531 | 23 | 190 | 0.0 | 0.0 | 0.00 | 0.00 | 0.00 | 1 | 1008.5 |
| 20260509110030 | 23 | 190 | 0.0 | 0.0 | 0.00 | 0.00 | 0.00 | 1 | 1008.4 |
| 20260509105529 | 23 | 190 | 0.0 | 0.0 | 0.00 | 0.00 | 0.00 | 1 | 1008.3 |
| 20260509105026 | 23 | 190 | 0.0 | 0.0 | 0.00 | 0.00 | 0.00 | 1 | 1008.5 |
| 20260509104527 | 23 | 190 | 0.0 | 0.0 | 0.00 | 0.00 | 0.00 | 1 | 1008.4 |
| 20260509104026 | 23 | 190 | 0.0 | 0.0 | 0.00 | 0.00 | 0.00 | 1 | 1008.2 |
| 20260509103526 | 23 | 190 | 0.0 | 0.0 | 0.00 | 0.00 | 0.00 | 1 | 1008.2 |
| 20260509103024 | 23 | 190 | 0.0 | 0.0 | 0.00 | 0.00 | 0.00 | 1 | 1008.1 |
| 20260509102518 | 23 | 190 | 0.0 | 1.6 | 0.00 | 0.00 | 0.00 | 1 | 1008.3 |
| 20260509102016 | 23 | 190 | 0.0 | 1.6 | 0.00 | 0.00 | 0.00 | 1 | 1008.4 |
| 20260509101746 | 23 | 190 | 0.0 | 0.0 | 0.00 | 0.00 | 0.00 | 1 | 1008.4 |
| 20260509101013 | 23 | 190 | 0.0 | 0.0 | 0.00 | 0.00 | 0.00 | 1 | 1008.3 |
| 20260509100514 | 23 | 190 | 0.0 | 1.6 | 0.00 | 0.00 | 0.00 | 1 | 1008.1 |
| 20260509100011 | 23 | 190 | 0.0 | 1.6 | 0.00 | 0.00 | 0.00 | 1 | 1008.0 |
| 20260509095233 | 23 | 190 | 0.0 | 1.6 | 0.00 | 0.00 | 0.00 | 1 | 1007.5 |
| 20260509094731 | 23 | 190 | 0.0 | 4.8 | 0.00 | 0.00 | 0.00 | 1 | 1007.3 |
| 20260509094000 | 23 | 190 | 1.6 | 4.8 | 0.00 | 0.00 | 0.00 | 1 | 1007.4 |
| 20260509093725 | 23 | 190 | 0.0 | 4.8 | 0.00 | 0.00 | 0.00 | 1 | 1007.3 |
| 20260509092953 | 23 | 190 | 0.0 | 0.0 | 0.00 | 0.00 | 0.00 | 1 | 1007.4 |
| 20260509092453 | 23 | 190 | 0.0 | 0.0 | 0.00 | 0.00 | 0.00 | 1 | 1007.5 |
| 20260509091955 | 23 | 190 | 0.0 | 0.0 | 0.00 | 0.00 | 0.00 | 1 | 1007.5 |
| 20260509091727 | 23 | 190 | 0.0 | 0.0 | 0.00 | 0.00 | 0.00 | 1 | 1007.4 |
| 20260509090954 | 23 | 190 | 0.0 | 3.2 | 0.00 | 0.00 | 0.00 | 1 | 1007.4 |
| 20260509090449 | 23 | 190 | 0.0 | 3.2 | 0.00 | 0.00 | 0.00 | 1 | 1007.6 |
| 20260509085951 | 23 | 190 | 0.0 | 0.0 | 0.00 | 0.00 | 0.00 | 1 | 1007.6 |
| 20260509085452 | 23 | 190 | 0.0 | 0.0 | 0.00 | 0.00 | 0.00 | 1 | 1007.6 |
| 20260509084952 | 23 | 190 | 0.0 | 0.0 | 0.00 | 0.00 | 0.00 | 1 | 1007.7 |
| 20260509084448 | 23 | 190 | 0.0 | 0.0 | 0.00 | 0.00 | 0.00 | 1 | 1007.8 |
| 20260509083442 | 23 | 190 | 0.0 | 0.0 | 0.00 | 0.00 | 0.00 | 1 | 1008.2 |
| 20260509082943 | 23 | 190 | 0.0 | 0.0 | 0.00 | 0.00 | 0.00 | 1 | 1008.4 |
| 20260509082438 | 23 | 190 | 0.0 | 0.0 | 0.00 | 0.00 | 0.00 | 1 | 1008.6 |
| 20260509081436 | 23 | 190 | 0.0 | 0.0 | 0.00 | 0.00 | 0.00 | 1 | 1008.6 |
| 20260509080931 | 23 | 190 | 0.0 | 0.0 | 0.00 | 0.00 | 0.00 | 1 | 1008.6 |
| 20260509080433 | 23 | 190 | 0.0 | 0.0 | 0.00 | 0.00 | 0.00 | 1 | 1008.4 |
| 20260509075927 | 23 | 190 | 0.0 | 1.6 | 0.00 | 0.00 | 0.00 | 1 | 1008.3 |
| 20260509075427 | 23 | 190 | 0.0 | 1.6 | 0.00 | 0.00 | 0.00 | 1 | 1008.2 |
| 20260509074927 | 23 | 190 | 0.0 | 1.6 | 0.00 | 0.00 | 0.00 | 1 | 1008.1 |
| 20260509074428 | 23 | 190 | 1.6 | 6.4 | 0.00 | 0.00 | 0.00 | 1 | 1008.0 |
| 20260509074201 | 23 | 190 | 1.6 | 6.4 | 0.00 | 0.00 | 0.00 | 1 | 1007.9 |
| 20260509073428 | 23 | 190 | 0.0 | 4.8 | 0.00 | 0.00 | 0.00 | 1 | 1007.9 |
| 20260509072923 | 23 | 190 | 0.0 | 0.0 | 0.00 | 0.00 | 0.00 | 1 | 1008.0 |
| 20260509072422 | 23 | 190 | 1.6 | 6.4 | 0.00 | 0.00 | 0.00 | 1 | 1008.2 |
| 20260509071923 | 23 | 190 | 1.6 | 6.4 | 0.00 | 0.00 | 0.00 | 1 | 1008.0 |
| 20260509071424 | 23 | 190 | 1.6 | 6.4 | 0.00 | 0.00 | 0.00 | 1 | 1008.0 |
| 20260509070925 | 23 | 190 | 1.6 | 6.4 | 0.00 | 0.00 | 0.00 | 1 | 1008.0 |
| 20260509070424 | 23 | 190 | 3.2 | 8.0 | 0.00 | 0.00 | 0.00 | 1 | 1007.9 |
| 20260509065924 | 23 | 190 | 3.2 | 8.0 | 0.00 | 0.00 | 0.00 | 1 | 1007.9 |
| 20260509065419 | 23 | 190 | 3.2 | 6.4 | 0.00 | 0.00 | 0.00 | 1 | 1007.9 |
| 20260509064921 | 23 | 190 | 3.2 | 6.4 | 0.00 | 0.00 | 0.00 | 1 | 1008.0 |
| 20260509064419 | 23 | 190 | 1.6 | 8.0 | 0.00 | 0.00 | 0.00 | 1 | 1008.0 |
| 20260509063920 | 23 | 190 | 1.6 | 8.0 | 0.00 | 0.00 | 0.00 | 1 | 1008.1 |
| 20260509063652 | 23 | 190 | 3.2 | 9.7 | 0.00 | 0.00 | 0.00 | 1 | 1008.0 |
| 20260509062919 | 23 | 190 | 3.2 | 9.7 | 0.00 | 0.00 | 0.00 | 1 | 1007.7 |
| 20260509062418 | 23 | 190 | 4.8 | 11.3 | 0.00 | 0.00 | 0.00 | 1 | 1007.6 |
| 20260509061920 | 23 | 190 | 4.8 | 11.3 | 0.00 | 0.00 | 0.00 | 1 | 1007.6 |
| 20260509061412 | 23 | 190 | 4.8 | 11.3 | 0.00 | 0.00 | 0.00 | 1 | 1007.7 |
| 20260509060909 | 23 | 190 | 6.4 | 11.3 | 0.00 | 0.00 | 0.00 | 1 | 1007.8 |
| 20260509060408 | 23 | 190 | 4.8 | 11.3 | 0.00 | 0.00 | 0.00 | 1 | 1007.8 |
| 20260509055910 | 23 | 190 | 4.8 | 8.0 | 0.00 | 0.00 | 0.00 | 1 | 1007.9 |
| 20260509055410 | 23 | 190 | 4.8 | 11.3 | 0.00 | 0.00 | 0.00 | 1 | 1007.9 |
| 20260509054910 | 23 | 190 | 4.8 | 11.3 | 0.00 | 0.00 | 0.00 | 1 | 1008.1 |
| 20260509054403 | 23 | 190 | 4.8 | 9.7 | 0.00 | 0.00 | 0.00 | 1 | 1008.2 |
| 20260509053902 | 23 | 190 | 4.8 | 9.7 | 0.00 | 0.00 | 0.00 | 1 | 1008.3 |
| 20260509053402 | 23 | 190 | 4.8 | 12.9 | 0.00 | 0.00 | 0.00 | 1 | 1008.3 |
| 20260509052904 | 23 | 190 | 4.8 | 12.9 | 0.00 | 0.00 | 0.00 | 1 | 1008.2 |
| 20260509052403 | 23 | 190 | 4.8 | 9.7 | 0.00 | 0.00 | 0.00 | 1 | 1008.1 |
| 20260509051901 | 23 | 190 | 4.8 | 9.7 | 0.00 | 0.00 | 0.00 | 1 | 1008.1 |
| 20260509051353 | 23 | 190 | 3.2 | 8.0 | 0.00 | 0.00 | 0.00 | 1 | 1008.0 |
| 20260509050854 | 23 | 190 | 4.8 | 12.9 | 0.00 | 0.00 | 0.00 | 1 | 1007.9 |
| 20260509050352 | 23 | 190 | 6.4 | 14.5 | 0.00 | 0.00 | 0.00 | 1 | 1007.9 |
| 20260509045850 | 23 | 190 | 6.4 | 14.5 | 0.00 | 0.00 | 0.00 | 1 | 1007.9 |
| 20260509045349 | 23 | 190 | 4.8 | 9.7 | 0.00 | 0.00 | 0.00 | 1 | 1007.9 |
| 20260509044852 | 23 | 190 | 6.4 | 11.3 | 0.00 | 0.00 | 0.00 | 1 | 1007.9 |
| 20260509044348 | 23 | 190 | 6.4 | 11.3 | 0.00 | 0.00 | 0.00 | 1 | 1007.9 |
| 20260509043842 | 23 | 190 | 6.4 | 11.3 | 0.00 | 0.00 | 0.00 | 1 | 1008.0 |
| 20260509043341 | 23 | 190 | 6.4 | 11.3 | 0.00 | 0.00 | 0.00 | 1 | 1008.0 |
| 20260509042841 | 23 | 190 | 8.0 | 12.9 | 0.00 | 0.00 | 0.00 | 1 | 1008.1 |
| 20260509042616 | 23 | 190 | 6.4 | 12.9 | 0.00 | 0.00 | 0.00 | 1 | 1008.2 |
| 20260509041841 | 23 | 190 | 4.8 | 9.7 | 0.00 | 0.00 | 0.00 | 1 | 1008.3 |
| 20260509041613 | 23 | 190 | 4.8 | 9.7 | 0.00 | 0.00 | 0.00 | 1 | 1008.4 |
| 20260509040843 | 23 | 190 | 4.8 | 8.0 | 0.00 | 0.00 | 0.00 | 1 | 1008.3 |
| 20260509040343 | 23 | 190 | 4.8 | 8.0 | 0.00 | 0.00 | 0.00 | 1 | 1008.3 |
| 20260509035838 | 23 | 190 | 3.2 | 8.0 | 0.00 | 0.00 | 0.00 | 1 | 1008.3 |
| 20260509035336 | 23 | 190 | 3.2 | 8.0 | 0.00 | 0.00 | 0.00 | 1 | 1008.2 |
| 20260509035106 | 23 | 190 | 3.2 | 8.0 | 0.00 | 0.00 | 0.00 | 1 | 1008.0 |
| 20260509034340 | 23 | 190 | 3.2 | 8.0 | 0.00 | 0.00 | 0.00 | 1 | 1007.9 |
| 20260509033836 | 23 | 190 | 1.6 | 6.4 | 0.00 | 0.00 | 0.00 | 1 | 1007.9 |
| 20260509033341 | 23 | 190 | 1.6 | 8.0 | 0.00 | 0.00 | 0.00 | 1 | 1007.8 |
| 20260509032833 | 23 | 190 | 3.2 | 8.0 | 0.00 | 0.00 | 0.00 | 1 | 1007.8 |
| 20260509032333 | 23 | 190 | 3.2 | 6.4 | 0.00 | 0.00 | 0.00 | 1 | 1007.8 |
| 20260509031604 | 23 | 190 | 1.6 | 6.4 | 0.00 | 0.00 | 0.00 | 1 | 1007.8 |
| 20260509030833 | 23 | 190 | 1.6 | 8.0 | 0.00 | 0.00 | 0.00 | 1 | 1007.8 |
| 20260509030339 | 23 | 190 | 3.2 | 8.0 | 0.00 | 0.00 | 0.00 | 1 | 1007.7 |
| 20260509025329 | 23 | 190 | 3.2 | 9.7 | 0.00 | 0.00 | 0.00 | 1 | 1007.7 |
| 20260509024602 | 23 | 190 | 4.8 | 9.7 | 0.00 | 0.00 | 0.00 | 1 | 1007.5 |
| 20260509023825 | 23 | 190 | 6.4 | 11.3 | 0.00 | 0.00 | 0.00 | 1 | 1007.4 |
| 20260509023329 | 23 | 190 | 4.8 | 11.3 | 0.00 | 0.00 | 0.00 | 1 | 1007.2 |
| 20260509023101 | 23 | 190 | 4.8 | 11.3 | 0.00 | 0.00 | 0.00 | 1 | 1007.2 |
| 20260509022327 | 23 | 190 | 6.4 | 11.3 | 0.00 | 0.00 | 0.00 | 1 | 1007.2 |
| 20260509021822 | 23 | 190 | 6.4 | 12.9 | 0.00 | 0.00 | 0.00 | 1 | 1007.0 |
| 20260509021319 | 23 | 190 | 6.4 | 12.9 | 0.00 | 0.00 | 0.00 | 1 | 1007.0 |
| 20260509020821 | 23 | 190 | 4.8 | 9.7 | 0.00 | 0.00 | 0.00 | 1 | 1007.0 |
| 20260509015815 | 23 | 190 | 3.2 | 8.0 | 0.00 | 0.00 | 0.00 | 1 | 1007.0 |
| 20260509015316 | 23 | 190 | 3.2 | 11.3 | 0.00 | 0.00 | 0.00 | 1 | 1007.0 |
| 20260509014821 | 23 | 190 | 4.8 | 11.3 | 0.00 | 0.00 | 0.00 | 1 | 1007.0 |
| 20260509014315 | 23 | 190 | 4.8 | 16.1 | 0.00 | 0.00 | 0.00 | 1 | 1006.9 |
| 20260509013816 | 23 | 190 | 4.8 | 16.1 | 0.00 | 0.00 | 0.00 | 1 | 1006.9 |
| 20260509013310 | 23 | 190 | 4.8 | 9.7 | 0.00 | 0.00 | 0.00 | 1 | 1007.0 |
| 20260509012811 | 24 | 190 | 4.8 | 9.7 | 0.00 | 0.00 | 0.00 | 1 | 1007.0 |
| 20260509012311 | 24 | 190 | 3.2 | 9.7 | 0.00 | 0.00 | 0.00 | 1 | 1006.9 |
| 20260509011813 | 24 | 190 | 3.2 | 6.4 | 0.00 | 0.00 | 0.00 | 1 | 1006.9 |
| 20260509011311 | 24 | 190 | 3.2 | 8.0 | 0.00 | 0.00 | 0.00 | 1 | 1006.8 |
| 20260509010813 | 24 | 190 | 3.2 | 9.7 | 0.00 | 0.00 | 0.00 | 1 | 1006.8 |
| 20260509010313 | 24 | 190 | 3.2 | 9.7 | 0.00 | 0.00 | 0.00 | 1 | 1006.8 |
| 20260509005812 | 24 | 190 | 3.2 | 8.0 | 0.00 | 0.00 | 0.00 | 1 | 1006.8 |
| 20260509005544 | 24 | 190 | 3.2 | 8.0 | 0.00 | 0.00 | 0.00 | 1 | 1006.7 |
| 20260509004808 | 24 | 190 | 4.8 | 8.0 | 0.00 | 0.00 | 0.00 | 1 | 1006.7 |
| 20260509004310 | 25 | 190 | 4.8 | 9.7 | 0.00 | 0.00 | 0.00 | 6 | 1006.7 |
| 20260509003805 | 25 | 190 | 4.8 | 9.7 | 0.00 | 0.00 | 0.00 | 9 | 1006.7 |
| 20260509003318 | 25 | 190 | 3.2 | 9.7 | 0.00 | 0.00 | 0.00 | 12 | 1006.7 |
| 20260509002808 | 25 | 190 | 3.2 | 8.0 | 0.00 | 0.00 | 0.00 | 14 | 1006.7 |
| 20260509002537 | 25 | 190 | 3.2 | 8.0 | 0.00 | 0.00 | 0.00 | 17 | 1006.7 |
| 20260509001808 | 25 | 190 | 3.2 | 8.0 | 0.00 | 0.00 | 0.00 | 21 | 1006.7 |
| 20260509001306 | 25 | 190 | 3.2 | 9.7 | 0.00 | 0.00 | 0.00 | 23 | 1006.8 |
| 20260509000800 | 25 | 190 | 4.8 | 9.7 | 0.00 | 0.00 | 0.00 | 27 | 1006.7 |
| 20260509000256 | 25 | 190 | 4.8 | 9.7 | 0.00 | 0.00 | 0.00 | 30 | 1006.7 |
| 20260508235801 | 25 | 190 | 3.2 | 9.7 | 0.00 | 0.00 | 0.00 | 28 | 1006.8 |
| 20260508235251 | 25 | 190 | 3.2 | 8.0 | 0.00 | 0.00 | 0.00 | 27 | 1006.8 |
| 20260508234752 | 25 | 190 | 4.8 | 11.3 | 0.00 | 0.00 | 0.00 | 28 | 1006.8 |
| 20260508234251 | 25 | 190 | 4.8 | 11.3 | 0.00 | 0.00 | 0.00 | 32 | 1006.9 |
| 20260508233747 | 25 | 190 | 4.8 | 9.7 | 0.00 | 0.00 | 0.00 | 32 | 1006.8 |
| 20260508233247 | 25 | 190 | 4.8 | 9.7 | 0.00 | 0.00 | 0.00 | 36 | 1006.7 |
| 20260508232743 | 25 | 190 | 4.8 | 9.7 | 0.00 | 0.00 | 0.00 | 37 | 1006.7 |
| 20260508232248 | 25 | 190 | 3.2 | 9.7 | 0.00 | 0.00 | 0.00 | 36 | 1006.7 |
| 20260508232015 | 25 | 190 | 3.2 | 8.0 | 0.00 | 0.00 | 0.00 | 36 | 1006.7 |
| 20260508231010 | 26 | 190 | 4.8 | 11.3 | 0.00 | 0.00 | 0.00 | 42 | 1006.7 |
| 20260508230238 | 26 | 190 | 4.8 | 11.3 | 0.00 | 0.00 | 0.00 | 47 | 1006.7 |
| 20260508225736 | 26 | 190 | 3.2 | 8.0 | 0.00 | 0.00 | 0.00 | 45 | 1006.5 |
| 20260508225235 | 26 | 190 | 4.8 | 11.3 | 0.00 | 0.00 | 0.00 | 48 | 1006.6 |
| 20260508224739 | 26 | 190 | 4.8 | 11.3 | 0.00 | 0.00 | 0.00 | 49 | 1006.6 |
| 20260508224235 | 26 | 190 | 4.8 | 9.7 | 0.00 | 0.00 | 0.00 | 47 | 1006.5 |
| 20260508223737 | 26 | 190 | 3.2 | 6.4 | 0.00 | 0.00 | 0.00 | 41 | 1006.5 |
| 20260508223236 | 26 | 190 | 1.6 | 6.4 | 0.00 | 0.00 | 0.00 | 41 | 1006.8 |
| 20260508221738 | 26 | 190 | 0.0 | 4.8 | 0.00 | 0.00 | 0.00 | 39 | 1006.7 |
| 20260508221503 | 26 | 190 | 0.0 | 0.0 | 0.00 | 0.00 | 0.00 | 38 | 1007.0 |
| 20260508220956 | 25 | 190 | 0.0 | 0.0 | 0.00 | 0.00 | 0.00 | 39 | 1007.0 |
| 20260508220455 | 25 | 190 | 0.0 | 0.0 | 0.00 | 0.00 | 0.00 | 43 | 1007.1 |
| 20260508215725 | 25 | 190 | 0.0 | 0.0 | 0.00 | 0.00 | 0.00 | 46 | 1007.1 |
| 20260508215221 | 25 | 190 | 0.0 | 0.0 | 0.00 | 0.00 | 0.00 | 46 | 1007.0 |
| 20260508214950 | 25 | 190 | 0.0 | 0.0 | 0.00 | 0.00 | 0.00 | 43 | 1007.0 |
| 20260508214210 | 25 | 190 | 0.0 | 0.0 | 0.00 | 0.00 | 0.00 | 44 | 1007.0 |
| 20260508213710 | 25 | 190 | 0.0 | 0.0 | 0.00 | 0.00 | 0.00 | 39 | 1007.2 |
| 20260508213440 | 25 | 190 | 0.0 | 0.0 | 0.00 | 0.00 | 0.00 | 41 | 1007.3 |